Location: Erp
(42.9417°N, 1.2009°E)
Time: 20:41:59
(UTC+00:00)

NOSS 3-4 (C) - Pass Details

Date: 12 January 2026
Orbit: 773 x 1438 km, 63.4° (Epoch: 26 December)

Event Time Altitude Azimuth Distance (km) Brightness Sun altitude
Rises 17:30:04 0° 187° (S) 3,235 6.7 -8.7°
Reaches altitude 10° 17:32:37 10° 178° (S) 2,311 5.7 -9.1°
Maximum altitude 17:37:15 33° 115° (ESE) 1,307 3.9 -9.9°
Enters shadow 17:41:36 13° 55° (NE) 2,264 4.8 -10.7°
